CDT,Max TemperatureF,Mean TemperatureF,Min TemperatureF,Max Dew PointF,MeanDew PointF,Min DewpointF,Max Humidity, Mean Humidity, Min Humidity, Max Sea Level PressureIn, Mean Sea Level PressureIn, Min Sea Level PressureIn, Max VisibilityMiles, Mean VisibilityMiles, Min VisibilityMiles, Max Wind SpeedMPH, Mean Wind SpeedMPH, Max Gust SpeedMPH,PrecipitationIn, CloudCover, Events, WindDirDegrees
2013-5-1,66,66,63,64,63,60,94,92,87,30.06,30.01,29.94,10,6,2,15,6,24,1.62,8,Rain-Thunderstorm,86
2013-5-2,75,68,60,64,60,57,94,84,61,30.08,30.02,29.97,10,9,2,16,10,24,0.11,8,Rain,90
2013-5-3,70,56,44,64,52,41,94,88,73,30.06,29.96,29.87,10,7,2,18,10,26,0.57,8,Rain,296
2013-5-4,66,52,39,46,38,31,97,65,27,30.04,29.98,29.93,10,10,10,14,6,23,0.00,2,,317
2013-5-5,59,52,44,46,43,39,97,76,48,30.00,29.93,29.85,10,10,8,18,6,26,0.01,5,Rain,299
2013-5-6,62,54,45,55,51,43,94,83,63,30.00,29.96,29.91,10,8,2,13,8,23,0.02,7,Rain,261
2013-5-7,75,62,51,58,54,50,97,74,49,30.07,30.03,29.97,10,10,6,9,4,,0.01,4,,311
2013-5-8,82,68,55,58,55,53,94,69,38,30.15,30.09,30.03,10,10,9,8,2,,0.00,2,,279
2013-5-9,82,68,55,63,58,53,93,69,45,30.16,30.11,30.06,10,10,9,9,3,,0.01,3,,202
2013-5-10,77,68,62,64,61,59,100,85,56,30.12,30.04,29.95,10,7,2,16,5,23,1.11,5,Rain-Thunderstorm,173
2013-5-11,78,70,62,66,63,59,96,84,60,30.09,30.01,29.97,10,8,2,13,4,18,0.20,5,Rain,288
2013-5-12,72,61,50,57,48,42,93,65,35,30.21,30.16,30.08,10,10,8,13,5,20,0.01,1,,341
2013-5-13,75,59,43,52,44,36,93,62,29,30.34,30.27,30.21,10,10,10,7,2,,0.00,0,,328
2013-5-14,84,67,50,56,52,48,94,63,29,30.29,30.22,30.16,10,10,10,10,2,16,0.00,0,,242
2013-5-15,84,72,60,62,56,52,83,61,35,30.25,30.15,30.06,10,10,10,8,4,,0.00,3,,230
2013-5-16,79,69,60,67,61,55,93,73,51,30.10,30.04,29.97,10,10,4,8,2,,0.06,5,Fog-Rain,164
2013-5-17,82,74,66,70,67,64,94,82,62,30.06,30.01,29.97,10,8,2,14,5,22,0.08,6,Rain,176
2013-5-18,87,79,71,72,69,66,94,78,55,30.09,30.03,29.98,10,9,6,13,5,24,0.03,4,Rain-Thunderstorm,227
2013-5-19,87,79,72,72,69,66,90,75,57,30.06,30.03,29.98,10,9,6,8,5,,0.00,5,,182
2013-5-20,89,79,71,70,68,66,94,77,51,30.08,30.01,29.96,10,9,7,8,4,,0.00,3,,178
2013-5-21,88,78,68,70,68,65,94,76,49,30.03,29.97,29.86,10,8,2,10,3,17,0.00,2,,174
2013-5-22,77,70,64,69,65,62,94,84,66,29.99,29.96,29.91,10,9,2,21,7,28,0.40,5,Rain-Thunderstorm,239
2013-5-23,88,76,66,70,65,59,100,79,39,30.09,30.04,29.98,10,6,0,14,3,16,0.01,3,Fog,279
2013-5-24,82,72,61,64,55,48,90,59,32,30.26,30.20,30.09,10,10,10,12,5,17,0.00,1,,22
2013-5-25,82,66,50,58,50,45,93,60,30,30.33,30.26,30.21,10,10,10,8,3,,0.00,0,,71
2013-5-26,86,70,55,63,56,53,93,64,35,30.27,30.20,30.15,10,10,10,6,1,,0.00,2,,120
2013-5-27,88,75,63,68,61,57,93,66,37,30.21,30.14,30.06,10,10,10,10,3,18,0.00,1,,159
2013-5-28,87,74,61,64,61,54,93,63,33,30.14,30.10,30.04,10,10,9,12,5,17,0.00,1,,165
2013-5-29,90,76,64,69,66,62,97,80,48,30.14,30.07,30.03,10,8,2,13,5,26,0.01,5,Rain-Thunderstorm,139
2013-5-30,86,75,66,71,68,65,93,77,58,30.12,30.07,30.01,10,10,9,16,5,22,0.00,5,Rain,136
2013-5-31,89,76,66,75,69,64,94,78,57,30.10,30.04,29.98,10,9,2,12,6,22,0.09,4,Rain-Thunderstorm,143